DW5138 Weather Reports


time (UTC)temp
C
wind
direction
speed
KPH
gust
KPH
rain 1hr
cm
rain 24hr
cm
rain mn
cm
humidity
%
barometer
mb
20260906215003 30 348 8.0 25.7 0.00 0.00 0.00 31 3062.6
20260906214503 31 350 9.7 17.7 0.00 0.00 0.00 30 3063.0
20260906214003 30 350 0.0 17.7 0.00 0.00 0.00 30 3063.1
20260906213504 30 71 1.6 16.1 0.00 0.00 0.00 31 3063.4
20260906213004 30 33 0.0 16.1 0.00 0.00 0.00 32 3063.4
20260906212504 30 13 4.8 14.5 0.00 0.00 0.00 31 3063.4
20260906212004 30 292 6.4 14.5 0.00 0.00 0.00 32 3063.6
20260906211503 31 280 6.4 14.5 0.00 0.00 0.00 32 3064.4
20260906211003 30 31 0.0 14.5 0.00 0.00 0.00 32 3064.3
20260906210503 30 174 3.2 16.1 0.00 0.00 0.00 33 3064.5
20260906210004 30 173 6.4 16.1 0.00 0.00 0.00 33 3064.7
20260906205503 30 220 0.0 16.1 0.00 0.00 0.00 33 3064.7
20260906204003 30 61 0.0 14.5 0.00 0.00 0.00 32 3065.4
20260906203503 30 313 11.3 17.7 0.00 0.00 0.00 32 3065.9
20260906202503 31 14 3.2 12.9 0.00 0.00 0.00 32 3066.1
20260906202003 31 199 6.4 17.7 0.00 0.00 0.00 32 3066.4
20260906201503 31 267 11.3 17.7 0.00 0.00 0.00 32 3067.7
20260906201003 31 71 0.0 16.1 0.00 0.00 0.00 32 3068.1
20260906200503 31 329 1.6 16.1 0.00 0.00 0.00 33 3067.9
20260906200002 30 290 12.9 17.7 0.00 0.00 0.00 33 3066.8
20260906195503 30 11 0.0 17.7 0.00 0.00 0.00 34 3066.7
20260906194502 30 246 8.0 12.9 0.00 0.00 0.00 32 3066.9
20260906194002 30 303 11.3 12.9 0.00 0.00 0.00 32 3067.2
20260906193503 30 226 0.0 11.3 0.00 0.00 0.00 30 3067.1
20260906192002 30 74 0.0 14.5 0.00 0.00 0.00 32 3067.9
20260906191502 30 296 4.8 20.9 0.00 0.00 0.00 32 3068.2
20260906191003 30 68 0.0 20.9 0.00 0.00 0.00 32 3068.2
20260906190503 30 244 4.8 11.3 0.00 0.00 0.00 32 3068.7
20260906185002 30 282 6.4 14.5 0.00 0.00 0.00 32 3069.8
20260906184502 30 282 3.2 14.5 0.00 0.00 0.00 33 3070.0
20260906184002 29 234 1.6 14.5 0.00 0.00 0.00 34 3068.9
20260906183502 29 264 0.0 14.5 0.00 0.00 0.00 33 3069.2
20260906183002 30 259 8.0 14.5 0.00 0.00 0.00 34 3071.5
20260906182502 29 248 0.0 14.5 0.00 0.00 0.00 34 3070.3
20260906182002 29 290 3.2 14.5 0.00 0.00 0.00 34 3070.4
20260906181502 29 276 3.2 11.3 0.00 0.00 0.00 33 3072.2
20260906181002 28 16 0.0 11.3 0.00 0.00 0.00 35 3072.7
20260906180502 29 350 11.3 12.9 0.00 0.00 0.00 34 3072.8
20260906180002 28 33 0.0 14.5 0.00 0.00 0.00 35 3073.1
20260906175502 28 317 11.3 14.5 0.00 0.00 0.00 34 3073.5
20260906175002 28 198 0.0 16.1 0.00 0.00 0.00 34 3073.5
20260906174002 28 38 0.0 12.9 0.00 0.00 0.00 34 3072.5
20260906173502 28 253 3.2 12.9 0.00 0.00 0.00 33 3074.1
20260906173001 28 52 0.0 9.7 0.00 0.00 0.00 33 3074.3
20260906172501 28 52 0.0 12.9 0.00 0.00 0.00 35 3073.7
20260906172001 28 286 0.0 12.9 0.00 0.00 0.00 33 3073.3
20260906171501 28 300 9.7 11.3 0.00 0.00 0.00 33 3073.8
20260906171001 28 301 1.6 20.9 0.00 0.00 0.00 34 3074.0
20260906170501 28 130 0.0 20.9 0.00 0.00 0.00 33 3074.0
20260906165501 28 95 0.0 8.0 0.00 0.00 0.00 33 3074.0
20260906165001 28 295 0.0 8.0 0.00 0.00 0.00 32 3073.8
20260906164501 28 72 0.0 9.7 0.00 0.00 0.00 32 3073.6
20260906164001 28 317 0.0 9.7 0.00 0.00 0.00 32 3073.8
20260906163501 28 237 4.8 8.0 0.00 0.00 0.00 33 3074.0
20260906163001 27 57 0.0 8.0 0.00 0.00 0.00 32 3073.8
20260906162501 28 56 0.0 6.4 0.00 0.00 0.00 32 3074.3
20260906162001 27 86 0.0 9.7 0.00 0.00 0.00 32 3073.9
20260906161501 27 31 0.0 9.7 0.00 0.00 0.00 32 3075.3
20260906161001 27 22 1.6 9.7 0.00 0.00 0.00 33 3075.7
20260906155501 27 56 0.0 1.6 0.00 0.00 0.00 33 3075.2
20260906155001 26 61 0.0 1.6 0.00 0.00 0.00 33 3073.7
20260906154001 26 61 0.0 4.8 0.00 0.00 0.00 33 3073.5
20260906153500 26 254 0.0 3.2 0.00 0.00 0.00 33 3073.3
20260906153000 26 283 1.6 3.2 0.00 0.00 0.00 35 3073.8
20260906152500 26 5 0.0 3.2 0.00 0.00 0.00 36 3074.0
20260906151500 25 187 0.0 1.6 0.00 0.00 0.00 36 3073.8
20260906151001 25 206 0.0 1.6 0.00 0.00 0.00 36 3073.8
20260906150500 25 116 0.0 1.6 0.00 0.00 0.00 37 3074.0
20260906150000 25 55 0.0 1.6 0.00 0.00 0.00 38 3072.5
20260906145500 24 16 0.0 1.6 0.00 0.00 0.00 39 3072.2
20260906144500 23 81 0.0 3.2 0.00 0.00 0.00 40 3071.1
20260906144000 23 102 0.0 3.2 0.00 0.00 0.00 41 3071.1
20260906143500 23 59 0.0 3.2 0.00 0.00 0.00 41 3071.1
20260906143000 22 231 0.0 3.2 0.00 0.00 0.00 42 3069.7
20260906142501 22 61 0.0 0.0 0.00 0.00 0.00 43 3069.5
20260906141959 22 61 0.0 0.0 0.00 0.00 0.00 43 3069.0
20260906141500 22 61 0.0 0.0 0.00 0.00 0.00 45 3071.9
20260906141000 21 107 0.0 0.0 0.00 0.00 0.00 46 3070.6
20260906140500 21 108 0.0 0.0 0.00 0.00 0.00 46 3070.8
20260906140000 21 108 0.0 0.0 0.00 0.00 0.00 47 3070.7
20260906135459 20 108 0.0 0.0 0.00 0.00 0.00 47 3069.2
20260906134959 20 97 0.0 0.0 0.00 0.00 0.00 49 3069.1
20260906134459 19 97 0.0 0.0 0.00 0.00 0.00 52 3067.6
20260906132959 17 97 0.0 0.0 0.00 0.00 0.00 58 3065.9
20260906132459 17 97 0.0 0.0 0.00 0.00 0.00 58 3064.3
20260906131459 17 97 0.0 0.0 0.00 0.00 0.00 58 3064.8
20260906130959 17 97 0.0 0.0 0.00 0.00 0.00 58 3064.8
20260906130459 17 98 0.0 0.0 0.00 0.00 0.00 62 3066.3
20260906125459 17 98 0.0 0.0 0.00 0.00 0.00 62 3066.2
20260906124959 17 98 0.0 0.0 0.00 0.00 0.00 62 3066.3
20260906123959 17 98 0.0 0.0 0.00 0.00 0.00 62 3066.3
20260906123458 17 98 0.0 0.0 0.00 0.00 0.00 62 3066.2
20260906122959 17 98 0.0 0.0 0.00 0.00 0.00 62 3066.2
20260906122458 17 98 0.0 0.0 0.00 0.00 0.00 62 3066.2
20260906121458 17 98 0.0 0.0 0.00 0.00 0.00 62 3070.0
20260906120958 17 98 0.0 0.0 0.00 0.00 0.00 62 3070.0
20260906120458 17 98 0.0 0.0 0.00 0.00 0.00 62 3069.8
20260906115958 17 98 0.0 0.0 0.00 0.00 0.00 62 3070.2
20260906115458 17 98 0.0 0.0 0.00 0.00 0.00 62 3070.0
20260906114958 17 98 0.0 0.0 0.00 0.00 0.00 62 3070.2
20260906114458 17 98 0.0 0.0 0.00 0.00 0.00 62 3069.9
20260906113958 17 98 0.0 0.0 0.00 0.00 0.00 62 3070.2
20260906113458 17 98 0.0 0.0 0.00 0.00 0.00 62 3070.2
20260906112958 17 98 0.0 0.0 0.00 0.00 0.00 62 3070.1
20260906111958 17 98 0.0 0.0 0.00 0.00 0.00 62 3070.0
20260906111457 17 98 0.0 0.0 0.00 0.00 0.00 62 3071.3
20260906110958 17 98 0.0 0.0 0.00 0.00 0.00 62 3071.3
20260906110458 17 98 0.0 0.0 0.00 0.00 0.00 62 3071.8
20260906104458 17 98 0.0 0.0 0.00 0.00 0.00 62 3072.3
20260906103957 17 98 0.0 0.0 0.00 0.00 0.00 62 3072.6
20260906103457 17 98 0.0 0.0 0.00 0.00 0.00 62 3072.7
20260906102957 17 98 0.0 0.0 0.00 0.00 0.00 62 3073.0
20260906102457 17 98 0.0 0.0 0.00 0.00 0.00 62 3073.2
20260906101957 17 98 0.0 0.0 0.00 0.00 0.00 62 3074.1
20260906101457 17 98 0.0 0.0 0.00 0.00 0.00 62 3072.1
20260906100957 17 98 0.0 0.0 0.00 0.00 0.00 62 3071.0
20260906100456 18 97 0.0 0.0 0.00 0.00 0.00 57 3071.0
20260906095956 18 97 0.0 0.0 0.00 0.00 0.00 55 3070.6
20260906094456 18 97 0.0 0.0 0.00 0.00 0.00 55 3070.3
20260906093456 17 97 0.0 0.0 0.00 0.00 0.00 57 3070.1
20260906092956 17 97 0.0 0.0 0.00 0.00 0.00 58 3070.1
20260906092456 17 97 0.0 0.0 0.00 0.00 0.00 60 3070.1
20260906091956 17 97 0.0 0.0 0.00 0.00 0.00 60 3070.3
20260906091456 17 97 0.0 0.0 0.00 0.00 0.00 60 3068.6
20260906090956 17 97 0.0 0.0 0.00 0.00 0.00 60 3068.4
20260906090456 18 97 0.0 0.0 0.00 0.00 0.00 59 3068.4
20260906085956 18 97 0.0 0.0 0.00 0.00 0.00 59 3068.6
20260906085455 18 97 0.0 0.0 0.00 0.00 0.00 59 3068.4
20260906084956 17 97 0.0 0.0 0.00 0.00 0.00 61 3068.5
20260906084456 17 97 0.0 0.0 0.00 0.00 0.00 63 3068.3
20260906083456 17 97 0.0 0.0 0.00 0.00 0.00 65 3068.3
20260906081955 17 97 0.0 0.0 0.00 0.00 0.00 67 3069.4
20260906081455 17 97 0.0 0.0 0.00 0.00 0.00 67 3073.0
20260906075455 17 97 0.0 0.0 0.00 0.00 0.00 69 3071.9
20260906074454 17 97 0.0 0.0 0.00 0.00 0.00 71 3072.6
20260906073954 17 97 0.0 0.0 0.00 0.00 0.00 71 3072.4
20260906072455 17 97 0.0 0.0 0.00 0.00 0.00 71 3073.7
20260906071954 17 97 0.0 0.0 0.00 0.00 0.00 70 3073.6
20260906071454 17 97 0.0 0.0 0.00 0.00 0.00 70 3074.2
20260906070454 17 97 0.0 0.0 0.00 0.00 0.00 70 3075.0
20260906065454 18 97 0.0 0.0 0.00 0.00 0.00 70 3076.3
20260906064954 18 97 0.0 0.0 0.00 0.00 0.00 70 3076.7
20260906064454 18 97 0.0 0.0 0.00 0.00 0.00 69 3076.3
20260906063954 18 97 0.0 0.0 0.00 0.00 0.00 68 3076.3
20260906063454 18 97 0.0 0.0 0.00 0.00 0.00 67 3076.6
20260906062454 18 97 0.0 0.0 0.00 0.00 0.00 66 3076.2
20260906061954 18 97 0.0 0.0 0.00 0.00 0.00 67 3075.9
20260906061454 18 97 0.0 0.0 0.00 0.00 0.00 67 3076.1
20260906060954 18 97 0.0 0.0 0.00 0.00 0.00 67 3075.9
20260906055954 18 97 0.0 0.0 0.00 0.00 0.00 67 3075.0
20260906055453 18 97 0.0 0.0 0.00 0.00 0.00 67 3075.4
20260906054953 18 97 0.0 0.0 0.00 0.00 0.00 66 3075.0
20260906053953 19 97 0.0 0.0 0.00 0.00 0.00 65 3074.5
20260906053453 19 97 0.0 0.0 0.00 0.00 0.00 66 3074.7
20260906051954 18 97 0.0 0.0 0.00 0.00 0.00 66 3074.6
20260906051453 19 97 0.0 0.0 0.00 0.00 0.00 66 3076.0
20260906050453 19 97 0.0 0.0 0.00 0.00 0.00 64 3076.3
20260906045953 20 97 0.0 0.0 0.00 0.00 0.00 63 3077.7
20260906045453 20 97 0.0 0.0 0.00 0.00 0.00 62 3077.6
20260906044953 20 97 0.0 0.0 0.00 0.00 0.00 62 3077.9
20260906044453 20 97 0.0 0.0 0.00 0.00 0.00 60 3078.0
20260906041452 21 97 0.0 0.0 0.00 0.00 0.00 60 3077.2
20260906040952 21 97 0.0 0.0 0.00 0.00 0.00 60 3076.8
20260906035952 21 97 0.0 0.0 0.00 0.00 0.00 59 3076.9
20260906034952 21 97 0.0 0.0 0.00 0.00 0.00 58 3078.2
20260906033952 21 97 0.0 0.0 0.00 0.00 0.00 57 3078.1
20260906033452 21 97 0.0 0.0 0.00 0.00 0.00 56 3078.0
20260906032952 21 97 0.0 0.0 0.00 0.00 0.00 56 3078.1
20260906031952 21 91 0.0 0.0 0.00 0.00 0.00 54 3075.9
20260906030952 21 91 0.0 0.0 0.00 0.00 0.00 50 3074.3
20260906030451 21 91 0.0 8.0 0.00 0.00 0.00 50 3074.2
20260906025952 22 91 0.0 8.0 0.00 0.00 0.00 52 3074.3
20260906025452 22 66 0.0 0.0 0.00 0.00 0.00 54 3073.9
20260906024951 22 66 0.0 0.0 0.00 0.00 0.00 54 3073.9
20260906024452 22 65 0.0 3.2 0.00 0.00 0.00 53 3073.7
20260906023952 22 128 0.0 3.2 0.00 0.00 0.00 48 3073.3
20260906023452 22 144 0.0 3.2 0.00 0.00 0.00 45 3072.9
20260906022952 22 154 0.0 3.2 0.00 0.00 0.00 38 3072.8
20260906022451 22 164 0.0 0.0 0.00 0.00 0.00 37 3072.6
20260906021951 23 61 0.0 0.0 0.00 0.00 0.00 37 3071.7
20260906021451 23 61 0.0 0.0 0.00 0.00 0.00 36 3061.7
20260906020952 23 61 0.0 0.0 0.00 0.00 0.00 36 3063.0
20260906020451 23 61 0.0 0.0 0.00 0.00 0.00 36 3062.4
20260906015952 23 61 0.0 0.0 0.00 0.00 0.00 37 3062.5
20260906015451 23 61 0.0 0.0 0.00 0.00 0.00 37 3062.5
20260906014951 23 61 0.0 0.0 0.00 0.00 0.00 37 3062.5
20260906014451 23 61 0.0 0.0 0.00 0.00 0.00 37 3062.2
20260906013951 23 61 0.0 0.0 0.00 0.00 0.00 37 3062.1
20260906013451 23 61 0.0 0.0 0.00 0.00 0.00 37 3062.0
20260906011951 24 61 0.0 0.0 0.00 0.00 0.00 36 3061.5
20260906011451 24 61 0.0 0.0 0.00 0.00 0.00 36 3058.8
20260906010450 25 61 0.0 0.0 0.00 0.00 0.00 35 3059.9
20260906005951 25 61 0.0 0.0 0.00 0.00 0.00 34 3060.1
20260906005450 26 61 0.0 0.0 0.00 0.00 0.00 33 3061.5
20260906004950 26 61 0.0 0.0 0.00 0.00 0.00 32 3061.9
20260906004450 27 61 0.0 0.0 0.00 0.00 0.00 30 3063.2
20260906003950 27 61 0.0 0.0 0.00 0.00 0.00 30 3063.4
20260906003450 27 61 0.0 0.0 0.00 0.00 0.00 32 3063.3
20260906002950 27 61 0.0 0.0 0.00 0.00 0.00 31 3063.2
20260906002450 27 61 0.0 0.0 0.00 0.00 0.00 30 3063.0
20260906001450 27 61 0.0 0.0 0.00 0.00 0.00 30 3060.8
20260906000950 28 61 0.0 0.0 0.00 0.00 0.00 30 3061.9
20260906000450 28 61 0.0 0.0 0.00 0.00 0.00 28 3062.1
20260905235950 28 61 0.0 0.0 0.00 0.00 0.00 27 3061.7
20260905235450 28 61 0.0 0.0 0.00 0.00 0.00 27 3061.7
20260905234450 28 61 0.0 0.0 0.00 0.00 0.00 28 3061.5
20260905233949 28 61 0.0 0.0 0.00 0.00 0.00 29 3061.5
20260905233449 28 61 0.0 0.0 0.00 0.00 0.00 29 3061.5
20260905232949 28 61 0.0 0.0 0.00 0.00 0.00 28 3061.5
20260905232450 28 61 0.0 0.0 0.00 0.00 0.00 28 3061.5
20260905231449 28 61 0.0 0.0 0.00 0.00 0.00 27 3061.0
20260905230450 28 112 0.0 0.0 0.00 0.00 0.00 29 3061.2
20260905225450 28 64 0.0 0.0 0.00 0.00 0.00 29 3061.2
20260905224949 28 63 0.0 0.0 0.00 0.00 0.00 30 3061.8
20260905223950 27 63 0.0 0.0 0.00 0.00 0.00 30 3060.3
20260905223449 28 63 0.0 0.0 0.00 0.00 0.00 30 3062.1
20260905222949 28 63 0.0 0.0 0.00 0.00 0.00 30 3062.2
20260905221949 27 47 0.0 0.0 0.00 0.00 0.00 31 3060.5
20260905221449 27 47 0.0 0.0 0.00 0.00 0.00 32 3060.9
20260905220949 27 45 0.0 0.0 0.00 0.00 0.00 31 3060.9
20260905220449 27 45 0.0 0.0 0.00 0.00 0.00 31 3061.4
20260905215948 27 45 0.0 0.0 0.00 0.00 0.00 31 3061.5
20260905215449 27 45 0.0 0.0 0.00 0.00 0.00 30 3061.4